Wright-Patt AFB, OH

10:55 AM EDT on September 26, 2017 (GMT -0400)
Wright-Patterson Air Force Base

Weather History for KFFO - July, 2014

Change the Weather History Date:

Wednesday, July 2, 2014

  Actual Average Record
Temperature  
Mean Temperature 76 °F -  
Max Temperature 84 °F 81 °F 93 °F (2006)
Min Temperature 67 °F 60 °F 48 °F (2007)
Cooling Degree Days 10    
Growing Degree Days 26 (Base 50)    
Moisture  
Dew Point 67 °F    
Average Humidity 81    
Maximum Humidity 99    
Minimum Humidity 51    
Precipitation  
Precipitation 0.07 in - - ()
Sea Level Pressure  
Sea Level Pressure 29.92 in    
Wind  
Wind Speed 9 mph (SW)    
Max Wind Speed 20 mph    
Max Gust Speed 24 mph    
Visibility 10 miles    
Events Rain , Thunderstorm    
Averages and records for this station are not official NWS values.
T = Trace of Precipitation, MM = Missing Value Source: NWS Daily Summary

Daily Weather History Graph

Daily Weather History Graph

Search for Another Location

Airport or City:

Trip Planner

Search our weather history database for the weather conditions in past years. The results will help you decide how hot, cold, wet, or windy it might be!

Date:

Astronomy

Jul. 02, 2014 Rise Set
Actual Time 6:12 AM EDT 9:08 PM EDT
Civil Twilight 5:39 AM EDT 9:40 PM EDT
Nautical Twilight 4:58 AM EDT 10:21 PM EDT
Astronomical Twilight 4:10 AM EDT 11:09 PM EDT
Moon 11:14 AM EDT (7/2) No Moon Set
Length of Visible Light 16h 01m
Length of Day
14h 56m
Waxing Crescent, 24% of the Moon is Illuminated
Jul 2
Waxing Crescent
Jul 5
First Quarter
Jul 12
Full
Jul 18
Last Quarter
Jul 26
New

Hourly Weather History & Observations

Time (EDT) Temp. Heat Index Dew Point Humidity Pressure Visibility Wind Dir Wind Speed Gust Speed Precip Events Conditions
12:58 AM 71.1 °F - 68.9 °F 93% 29.89 in 10.0 mi SSE 9.2 mph - 0.01 in   Light Drizzle
1:58 AM 69.3 °F - 68.2 °F 96% 29.87 in 10.0 mi SSW 5.8 mph - 0.00 in   Partly Cloudy
2:58 AM 69.1 °F - 68.7 °F 99% 29.86 in 10.0 mi WSW 3.5 mph - N/A   Partly Cloudy
3:58 AM 69.4 °F - 68.9 °F 98% 29.87 in 10.0 mi SW 6.9 mph - N/A   Mostly Cloudy
4:58 AM 69.1 °F - 68.0 °F 96% 29.87 in 10.0 mi SW 9.2 mph - N/A   Partly Cloudy
5:58 AM 67.8 °F - 66.4 °F 95% 29.88 in 10.0 mi SW 6.9 mph - N/A   Clear
6:58 AM 67.6 °F - 65.3 °F 92% 29.89 in 10.0 mi SW 6.9 mph - N/A   Clear
7:58 AM 69.3 °F - 65.8 °F 89% 29.92 in 10.0 mi SW 6.9 mph - N/A   Clear
8:58 AM 71.2 °F - 66.6 °F 85% 29.94 in 10.0 mi SW 8.1 mph - N/A   Clear
9:58 AM 73.9 °F - 66.9 °F 79% 29.95 in 10.0 mi SW 5.8 mph - N/A   Clear
10:58 AM 76.3 °F - 67.8 °F 75% 29.92 in 10.0 mi SW 6.9 mph - 0.00 in   Light Drizzle
11:58 AM 79.5 °F - 66.0 °F 63% 29.93 in 10.0 mi SW 8.1 mph - 0.00 in   Clear
12:58 PM 82.2 °F 83.8 °F 64.8 °F 55% 29.93 in 10.0 mi SW 10.4 mph - N/A   Clear
1:58 PM 82.9 °F 84.2 °F 63.5 °F 52% 29.92 in 10.0 mi SSW 13.8 mph - N/A   Clear
2:58 PM 83.8 °F 85.3 °F 64.8 °F 52% 29.91 in 10.0 mi SSW 17.3 mph 24.2 mph N/A   Partly Cloudy
3:34 PM 82.4 °F 83.9 °F 64.4 °F 54% 29.92 in 10.0 mi WSW 12.7 mph 17.3 mph N/A   Scattered Clouds
3:58 PM 84.4 °F 85.9 °F 64.4 °F 51% 29.90 in 10.0 mi SSW 18.4 mph - 0.00 in   Partly Cloudy
4:58 PM 75.2 °F - 68.0 °F 78% 29.91 in 10.0 mi WNW 12.7 mph - 0.00 in Rain Light Rain
5:29 PM 73.4 °F - 69.8 °F 88% 29.92 in 10.0 mi West 6.9 mph - N/A Rain , Thunderstorm Light Rain
5:43 PM 73.4 °F - 69.8 °F 88% 29.93 in 10.0 mi SW 6.9 mph - N/A Rain , Thunderstorm Light Thunderstorms and Rain
5:58 PM 73.8 °F - 70.5 °F 90% 29.95 in 7.0 mi SSW 19.6 mph - 0.02 in Rain , Thunderstorm Light Thunderstorms and Rain
6:15 PM 69.8 °F - 68.0 °F 94% 29.93 in 7.0 mi SSW 9.2 mph - N/A Rain , Thunderstorm Light Rain
6:26 PM 71.6 °F - 68.0 °F 88% 29.93 in 10.0 mi SSW 9.2 mph - N/A   Mostly Cloudy
6:58 PM 72.1 °F - 68.7 °F 89% 29.93 in 10.0 mi SSW 8.1 mph - 0.04 in   Mostly Cloudy
7:58 PM 75.2 °F - 69.6 °F 83% 29.93 in 10.0 mi WSW 8.1 mph - N/A   Partly Cloudy
8:58 PM 72.7 °F - 68.7 °F 87% 29.93 in 10.0 mi SSW 6.9 mph - N/A   Partly Cloudy
9:58 PM 71.6 °F - 68.9 °F 91% 29.95 in 10.0 mi SW 6.9 mph - N/A   Scattered Clouds
10:58 PM 71.8 °F - 62.1 °F 71% 29.96 in 10.0 mi NNW 9.2 mph - N/A   Scattered Clouds
11:58 PM 70.0 °F - 60.6 °F 72% 29.99 in 10.0 mi NW 9.2 mph - N/A   Partly Cloudy